Regional Weather Roundup
Issued by NWS Upton, NY

Home | Current Version | Previous Version | Text Only | Print | Product List | Glossary On
Versions: 1 2 3 4 5 6 7 8 9 10 11 12 13 14 15 16 17 18 19 20 21 22 23 24 25 26 27 28 29 30 31 32 33 34 35 36 37 38 39 40 41 42 43 44 45 46 47 48 49 50
000
ASUS41 KOKX 210307
RWROKX

REGIONAL WEATHER ROUNDUP
NATIONAL WEATHER SERVICE NEW YORK NY
1100 PM EDT MON APR 20 2015

NOTE: "FAIR" INDICATES FEW OR NO CLOUDS BELOW 12,000 FEET WITH NO
SIGNIFICANT WEATHER AND/OR OBSTRUCTIONS TO VISIBILITY.

NYZ071-072-176-178-NJZ106-104-210400-
NEW YORK CITY METRO AREA


CITY           SKY/WX    TMP DP  RH WIND       PRES   REMARKS
CENTRAL PARK   FOG       52  52 100 E3        29.64F VSB 1/2
LAGUARDIA APRT FOG       50  50 100 NE7       29.61F VSB 1/4
KENNEDY INTL   FOG       53  51  93 E8        29.63F VSB 1/8
NEWARK/LIBERTY FOG       53  53 100 E6        29.60F VSB 1/4
BRNX BOT. GARD   N/A     52  52 100 NW2       29.62F
TETERBORO      FOG       54  53  97 NE7       29.60F VSB 1/2
$$

NYZ177-179-078>081-210400-
LONG ISLAND NEW YORK

CITY           SKY/WX    TMP DP  RH WIND       PRES   REMARKS
FARMINGDALE    FOG       55  54  96 SE6       29.63F VSB 1/4
ISLIP          FOG       53  52  96 SE6       29.62F VSB 1/8
SHIRLEY        FOG       52  51  97 SE6       29.66F VSB 1/2
WESTHAMPTON    FOG       53  52  96 SE6       29.67F VSB 1/2
MONTAUK POINT    N/A     51  49  92 SE10G21   29.67F
$$

NYZ052-065-067-210400-
HUDSON VALLEY

CITY           SKY/WX    TMP DP  RH WIND       PRES   REMARKS
WHITE PLAINS   FOG       54  53  97 E8        29.61F VSB<1/4
NEWBURGH       FOG       54  54 100 E6        29.63F VSB 3/4
MONTGOMERY     CLOUDY    53 N/A N/A N9        29.60F FOG
POUGHKEEPSIE   CLOUDY    56  51  84 NE6       29.61F
ALBANY         DRIZZLE   53  46  77 CALM      29.65F
$$

NJZ001-105-106-008-010-013-015-019>022-104-210400-
NEW JERSEY

CITY           SKY/WX    TMP DP  RH WIND       PRES   REMARKS
NEWARK/LIBERTY FOG       53  53 100 E6        29.60F VSB 1/4
TETERBORO      FOG       54  53  97 NE7       29.60F VSB 1/2
CALDWELL       FOG       55  54  96 E8        29.61F VSB 1/2
MORRISTOWN     FOG       57  55  94 NE3       29.60F VSB 1/4
SOMERVILLE     CLOUDY    58  55  90 CALM      29.56F FOG
SUSSEX         CLOUDY    54  53  97 N7        29.60F FOG
ANDOVER          N/A     55  54  96 CALM      29.59F
TRENTON        CLOUDY    59  57  93 E6        29.55F
MILLVILLE      CLOUDY    62  58  86 VRB6      29.56F
ATLANTIC CITY  CLOUDY    58  55  90 S12       29.59F
WRIGHTSTOWN    CLOUDY    61  60  98 S8        29.53F
TOMS RIVER     CLOUDY    59  55  88 S9        29.59F
BELMAR         CLOUDY    55  52  88 S5        29.58F
$$

PAZ047>061-062-071-210400-
EASTERN PENNSYLVANIA

CITY           SKY/WX    TMP DP  RH WIND       PRES   REMARKS
PHILADELPHIA   CLOUDY    68  60  75 S13G20    29.55F
ALLENTOWN      CLOUDY    59  57  93 NE6       29.55F FOG
SCRANTON       TSTM      57  53  86 MISG      29.60R FOG
$$

CTZ002-004>006-009-010-012-RIZ004-006-007-MAZ004-011-015-210400-
SOUTHERN NEW ENGLAND
 IN CT

CITY           SKY/WX    TMP DP  RH WIND       PRES   REMARKS
BRADLEY INTL   DRIZZLE   51  49  92 N8        29.68F FOG
HARTFORD       LGT RAIN  53  52  96 VRB5      29.67F FOG
DANBURY        CLOUDY    54  52  93 E5        29.65F FOG
WTRBRY/OXFORD  CLOUDY    54  46  76 E5        29.67F
BRIDGEPORT     FOG       52  51  97 NE10      29.65S VSB 1/2
MERIDEN        LGT RAIN  55  52  89 CALM      29.67F FOG
NEW HAVEN      CLOUDY    52  52 100 E6        29.66F FOG
CHESTER        FOG       52  52 100 E6        29.67F VSB<1/4
GROTON         FOG       50  50 100 SE17      29.66F VSB 3/4
WILLIMANTIC    LGT RAIN  56  54  93 SE3       29.68F FOG

 IN RI

CITY           SKY/WX    TMP DP  RH WIND       PRES   REMARKS
PROVIDENCE     LGT RAIN  54  53  97 S17G33    29.71F FOG
BLOCK ISLAND   CLOUDY    48  46  93 SE20G26   29.68F VSB 1/2
WESTERLY       FOG       49  49 100 SE13      29.69F VSB 1/2

 IN MA

CITY           SKY/WX    TMP DP  RH WIND       PRES   REMARKS
BOSTON         RAIN      50  50 100 SE16      29.75F FOG
WORCESTER      LGT RAIN  48  47  96 E6        29.72F VSB 1/4
WESTFIELD      CLOUDY    49  46  90 N10       29.69F FOG
PROVINCETOWN   CLOUDY   N/A N/A N/A SE23G37   29.79F
NANTUCKET      LGT RAIN  52  51  97 SE30G37   29.78F FOG
$$

ANZ330-335-338-340-345-350-353-355-210400-
COASTAL MARINE OBSERVATIONS


STATION/POSITION TIME  SKY/WX   TEMP    WIND        PRES    VSBY  WAVE
                                AIR SEA DIR/SP/G                  HT/PER
                 (UTC)          (F)     (DEG/KT/KT) (MB)    (MI)  (FT/S)
NY HARB ENTRANCE 0250            47 44  150/  6/  8 1002.4          8/10
4S FIRE IS       0203               43                N/A          10/ 9
20S FIRE ISLAND  0150               43              1003.8         10/10
23SW MTP         NOT AVBL
HUDSON CANYON    NOT AVBL
EXECUTION ROCKS  NOT AVBL
WESTERN LI SOUND NOT AVBL
CENTRAL LI SOUND NOT AVBL
EASTERN LI SOUND 0200            48     130/ 16/ 19   N/A
ROBBINS REEF     0200            52      90/ 10/ 11 1001.4
$$


>>>>>>>>>>>>>>>>>>>>>>>>>>>> KEY <<<<<<<<<<<<<<<<<<<<<<<<<<<
>                                                          <
>     SKY/WX - SKY CONDITION/PRESENT WEATHER               <
>     TMP    - TEMPERATURE IN FAHRENHEIT                   <
>     DP     - DEWPOINT IN FAHRENHEIT                      <
>     RH     - RELATIVE HUMIDITY IN PERCENT                <
>     WIND   - DIRECTION AND SPEED IN MPH                  <
>     PRES   - MEAN SEA LEVEL PRESSURE IN INCHES OF HG     <
>     WCI    - WIND CHILL INDEX                            <
>     VSB    - VISIBILITY IN MILES                         <
>     HX     - HEAT INDEX                                  <
>     TC     - TEMPERATURE IN CELSIUS                      <
>     VRB    - VARIABLE WIND DIRECTION                     <
>                                                          <
>>>>>>>>>>>>>>>>>>>>>>>>>>>> KEY <<<<<<<<<<<<<<<<<<<<<<<<<<<




USA.gov is the U.S. government's official web portal to all federal, state and local government web resources and services.